Location: Devore Heights
(34.2372°N, 117.4156°W)
Time: 20:01:45
(UTC+00:00)

deb Explorer IX - Pass Details

Date: 16 September 2024
Orbit: 502 x 816 km, 38.7° (Epoch: 15 October)

Event Time Altitude Azimuth Distance (km) Brightness Sun altitude
Rises 09:45:13 0° 280° (W) 3,253 - -43.7°
Reaches altitude 10° 09:48:30 10° 262° (W) 2,256 - -43.2°
Maximum altitude 09:51:59 18° 221° (SW) 1,700 - -42.7°
Drops below altitude 10° 09:55:16 10° 178° (S) 2,091 - -42.2°
Sets 09:58:10 0° 159° (SSE) 2,924 - -41.8°
